This demonstration page uses our WeatherBlox Daily Observations layout. Learn more.

Left ArrowRight Arrow

39.08367, -84.50855

Hourly Observations for March 24, 2019

Temp ( °F °C ) Dew Point ( °F °C ) Humidity (%) Winds ( mph kmh ) Pressure ( in mb ) Visibility ( mi km ) Precip ( " mm )
12:53 am 00:53 Clear 36 2.2 29 -1.7 76 76 VRB 3 6 30.27 1025 10 16 N/A
1:53 am 01:53 Clear 36 2.2 29 -1.7 76 76 N N/A 30.27 1025 10 16 N/A
2:53 am 02:53 Clear 36 2.2 29 -1.7 76 76 VRB 3 6 30.26 1025 10 16 N/A
3:53 am 03:53 Mostly Cloudy 37 2.8 31 -0.6 79 79 N N/A 30.25 1025 10 16 N/A
4:53 am 04:53 Clear 37 2.8 30 -1.1 76 76 VRB 5 7 30.25 1025 10 16 N/A
5:53 am 05:53 Clear 38 3.3 31 -0.6 76 76 N N/A 30.24 1024 10 16 N/A
6:53 am 06:53 Clear 38 3.3 31 -0.6 76 76 WSW 3 6 30.24 1024 10 16 N/A
7:53 am 07:53 Sunny 38 3.3 31 -0.6 76 76 N N/A 30.19 1022 10 16 N/A
8:53 am 08:53 Sunny 41 5 33 0.6 73 73 NE 3 6 30.22 1023 10 16 N/A
9:53 am 09:53 Sunny 44 6.7 33 0.6 65 65 N N/A 30.22 1023 10 16 N/A
10:53 am 10:53 Sunny 49 9.4 28 -2.2 44 44 SSW 5 7 30.23 1024 10 16 N/A
11:53 am 11:53 Sunny 53 11.7 25 -3.9 34 34 N N/A 30.21 1023 10 16 N/A
12:53 pm 12:53 Sunny 57 13.9 27 -2.8 32 32 N N/A 30.18 1022 10 16 N/A
1:53 pm 13:53 Partly Cloudy 61 16.1 26 -3.3 26 26 N N/A 30.14 1021 10 16 N/A
2:53 pm 14:53 Cloudy 61 16.1 27 -2.8 27 27 SW 8 13 30.13 1020 10 16 N/A
3:53 pm 15:53 Cloudy 61 16.1 30 -1.1 31 31 WSW 9 15 30.12 1020 10 16 N/A
4:53 pm 16:53 Cloudy with Light Rain 55 12.8 40 4.4 57 57 SW 10 17 30.12 1020 10 16 N/A
5:53 pm 17:53 Cloudy with Light Rain 53 11.7 46 7.8 77 77 N N/A 30.10 1019 10 16 0.01 0.25
6:53 pm 18:53 Cloudy with Light Rain 51 10.6 48 8.9 89 89 N N/A 30.08 1019 6 10 0.01 0.25
7:53 pm 19:53 Cloudy 51 10.6 47 8.3 86 86 NNE 3 6 30.06 1018 10 16 0.02 0.51
8:53 pm 20:53 Cloudy 49 9.4 47 8.3 93 93 ENE 5 7 30.07 1018 10 16 N/A
9:53 pm 21:53 Cloudy with Mist and Fog 50 10 48 8.9 93 93 N N/A 30.07 1018 6 10 N/A
10:53 pm 22:53 Cloudy 50 10 48 8.9 93 93 N N/A 30.06 1018 7 11 N/A
11:53 pm 23:53 Mostly Cloudy with Mist and Fog 49 9.4 48 8.9 97 97 N N/A 30.04 1017 3 5 N/A

Powered by AerisWeather